Photometre #854[NE_1.6_Dp] OHP_OBSERVATOIRE AOT

File : 20200924_854.hum

24/09/2020,06:17:18,TEMP=16.0,BA=5.00,STAT.A,ExtBa=9.70
24/09/2020,06:20:54,TEMP=16.2,BA=5.00,STAT.A,ExtBa=9.60
24/09/2020,06:25:05,TEMP=16.2,BA=5.00,STAT.A,ExtBa=9.60
24/09/2020,06:30:04,TEMP=16.2,BA=4.96,STAT.A,ExtBa=9.60
24/09/2020,06:31:40,TEMP=16.4,BA=4.96,STAT.b=4.0
24/09/2020,06:36:24,TEMP=16.2,BA=4.96,STAT.A,ExtBa=9.50
24/09/2020,06:43:30,TEMP=16.1,BA=5.00,STAT.A,ExtBa=9.40
24/09/2020,06:52:58,TEMP=16.8,BA=5.00,STAT.B,ExtBa=9.40
24/09/2020,07:02:44,TEMP=17.8,BA=4.92,STAT.s
24/09/2020,07:02:48,TEMP=17.8,BA=4.92,STAT.b=4.0
24/09/2020,07:02:59,TEMP=17.8,BA=4.92,STAT.s
24/09/2020,07:03:03,TEMP=17.8,BA=4.92,STAT.b=4.0
24/09/2020,07:07:53,TEMP=17.8,BA=4.92,STAT.s
24/09/2020,07:07:57,TEMP=17.8,BA=4.92,STAT.b=4.0
24/09/2020,07:14:42,TEMP=18.3,BA=4.96,STAT.A,ExtBa=9.00
24/09/2020,07:18:36,TEMP=19.3,BA=4.96,STAT.b=5.0
24/09/2020,07:21:49,TEMP=19.3,BA=4.96,STAT.s
24/09/2020,07:21:53,TEMP=19.3,BA=4.96,STAT.b=5.0
24/09/2020,07:30:44,TEMP=19.9,BA=4.96,STAT.A,ExtBa=8.90
24/09/2020,07:40:46,TEMP=21.0,BA=4.96,STAT.s
24/09/2020,07:40:50,TEMP=21.0,BA=4.96,STAT.b=5.0
24/09/2020,07:53:07,TEMP=21.0,BA=4.96,STAT.s
24/09/2020,07:53:11,TEMP=21.0,BA=4.96,STAT.b=5.0
24/09/2020,08:08:24,TEMP=21.0,BA=4.96,STAT.s
24/09/2020,08:08:28,TEMP=21.0,BA=4.96,STAT.b=5.0
24/09/2020,08:27:56,TEMP=21.0,BA=4.96,STAT.s
24/09/2020,08:28:00,TEMP=21.0,BA=4.96,STAT.b=5.0
24/09/2020,08:29:21,TEMP=21.0,BA=4.96,STAT.s
24/09/2020,08:29:25,TEMP=21.0,BA=4.96,STAT.b=5.0
24/09/2020,08:44:21,TEMP=21.0,BA=4.96,STAT.s
24/09/2020,08:44:25,TEMP=21.0,BA=4.96,STAT.b=5.0
24/09/2020,08:59:21,TEMP=21.0,BA=5.00,STAT.s
24/09/2020,08:59:25,TEMP=21.0,BA=5.00,STAT.b=5.0
24/09/2020,09:14:21,TEMP=21.0,BA=5.00,STAT.s
24/09/2020,09:14:25,TEMP=21.0,BA=5.00,STAT.b=5.0
24/09/2020,09:29:32,TEMP=24.9,BA=5.00,STAT.F,ExtBa=8.80
24/09/2020,10:08:15,TEMP=26.3,BA=4.88,STAT.b=5.0
24/09/2020,10:20:01,TEMP=26.3,BA=4.88,STAT.s
24/09/2020,10:20:05,TEMP=26.3,BA=4.92,STAT.b=5.0
24/09/2020,10:20:16,TEMP=26.3,BA=4.92,STAT.s
24/09/2020,10:20:20,TEMP=26.3,BA=4.92,STAT.b=5.0
24/09/2020,10:20:31,TEMP=26.3,BA=4.92,STAT.s
24/09/2020,10:20:35,TEMP=26.3,BA=4.92,STAT.b=5.0
24/09/2020,10:29:21,TEMP=26.3,BA=4.92,STAT.s
24/09/2020,10:29:25,TEMP=26.3,BA=4.92,STAT.b=5.0
24/09/2020,11:14:34,TEMP=27.9,BA=4.96,STAT.D,ExtBa=12.60
24/09/2020,11:29:36,TEMP=27.0,BA=4.96,STAT.F,ExtBa=12.50
24/09/2020,11:44:34,TEMP=25.4,BA=4.96,STAT.D,ExtBa=12.50
24/09/2020,11:59:34,TEMP=24.8,BA=4.96,STAT.D,ExtBa=12.50
24/09/2020,12:14:34,TEMP=24.0,BA=4.96,STAT.D,ExtBa=12.50
24/09/2020,12:29:36,TEMP=23.4,BA=4.96,STAT.F,ExtBa=12.50
24/09/2020,12:44:34,TEMP=24.5,BA=4.96,STAT.D,ExtBa=12.50
24/09/2020,12:59:34,TEMP=24.2,BA=4.96,STAT.D,ExtBa=12.50
24/09/2020,13:14:34,TEMP=24.2,BA=4.96,STAT.D,ExtBa=12.50
24/09/2020,13:29:36,TEMP=24.4,BA=4.96,STAT.F,ExtBa=12.50
24/09/2020,13:44:34,TEMP=24.0,BA=4.96,STAT.D,ExtBa=12.50
24/09/2020,13:59:34,TEMP=23.4,BA=4.96,STAT.D,ExtBa=12.60
24/09/2020,14:14:34,TEMP=22.9,BA=4.96,STAT.D,ExtBa=12.60
24/09/2020,14:29:35,TEMP=22.5,BA=4.96,STAT.F,ExtBa=12.60
24/09/2020,14:31:34,TEMP=22.9,BA=4.92,STAT.B,ExtBa=12.50
24/09/2020,14:50:32,TEMP=21.9,BA=4.96,STAT.A,ExtBa=12.50
24/09/2020,15:05:49,TEMP=21.1,BA=4.96,STAT.A,ExtBa=12.50
24/09/2020,15:18:10,TEMP=20.7,BA=4.96,STAT.A,ExtBa=12.50
24/09/2020,15:28:26,TEMP=20.3,BA=4.96,STAT.A,ExtBa=12.50
24/09/2020,15:37:07,TEMP=20.1,BA=4.92,STAT.C,ExtBa=12.50
24/09/2020,15:44:34,TEMP=19.9,BA=4.96,STAT.A,ExtBa=12.50
24/09/2020,15:51:03,TEMP=19.8,BA=4.96,STAT.A,ExtBa=12.50
24/09/2020,15:56:44,TEMP=19.6,BA=4.96,STAT.A,ExtBa=12.50
24/09/2020,16:01:46,TEMP=19.5,BA=4.96,STAT.A,ExtBa=12.50
24/09/2020,16:06:15,TEMP=19.4,BA=4.96,STAT.B,ExtBa=12.50
24/09/2020,16:15:39,TEMP=19.1,BA=4.96,STAT.A,ExtBa=12.50
24/09/2020,16:23:04,TEMP=19.0,BA=4.96,STAT.A,ExtBa=12.50
24/09/2020,16:29:05,TEMP=18.9,BA=4.96,STAT.A,ExtBa=12.50
24/09/2020,16:34:04,TEMP=18.8,BA=4.92,STAT.A,ExtBa=12.50
24/09/2020,16:38:15,TEMP=18.7,BA=4.92,STAT.A,ExtBa=12.50
24/09/2020,16:41:50,TEMP=18.6,BA=4.92,STAT.A,ExtBa=12.50